Mora, MN

4:15 PM CDT on April 20, 2018 (GMT -0500)
Mora Municipal

Weather History for KJMR - March, 2013

Change the Weather History Date:

Monday, March 4, 2013

  Actual Average Record
Temperature  
Mean Temperature 24 °F -  
Max Temperature 28 °F 35 °F 50 °F (1987)
Min Temperature 21 °F 10 °F -16 °F (2015)
Degree Days  
Heating Degree Days 40    
Moisture  
Dew Point 14 °F    
Average Humidity 65    
Maximum Humidity 86    
Minimum Humidity 43    
Precipitation  
Precipitation 0.04 in - - ()
Sea Level Pressure  
Sea Level Pressure 30.01 in    
Wind  
Wind Speed 7 mph (ESE)    
Max Wind Speed 16 mph    
Max Gust Speed 22 mph    
Visibility 8 miles    
Events Snow    
Averages and records for this station are not official NWS values.
T = Trace of Precipitation, MM = Missing Value Source: NWS Daily Summary

Daily Weather History Graph

Daily Weather History Graph

Search for Another Location

Airport or City:

Astronomy

Mar. 04, 2013 Rise Set
Actual Time 6:45 AM CST 6:04 PM CST
Civil Twilight 6:16 AM CST 6:34 PM CST
Nautical Twilight 5:41 AM CST 7:08 PM CST
Astronomical Twilight 5:06 AM CST 7:43 PM CST
Moon 1:09 AM CST (3/4) 10:32 AM CST (3/4)
Length of Visible Light 12h 18m
Length of Day
11h 18m
Waning Gibbous, 52% of the Moon is Illuminated
Mar 4
Waning Gibbous
Mar 4
Last Quarter
Mar 11
New
Mar 19
First Quarter
Mar 27
Full

Hourly Weather History & Observations

Time (CST) Temp. Windchill Dew Point Humidity Pressure Visibility Wind Dir Wind Speed Gust Speed Precip Events Conditions
12:12 AM 21.2 °F 14.9 °F 5.0 °F 50% 30.02 in 10.0 mi East 4.6 mph - N/A   Mostly Cloudy
12:32 AM 23.0 °F 13.9 °F 5.0 °F 46% 30.02 in 10.0 mi East 8.1 mph - N/A   Overcast
12:52 AM 23.0 °F 13.1 °F 3.2 °F 43% 30.02 in 10.0 mi East 9.2 mph - N/A   Overcast
1:12 AM 23.0 °F 17.0 °F 3.2 °F 43% 30.02 in 10.0 mi East 4.6 mph - N/A   Overcast
1:52 AM 21.2 °F 12.6 °F 5.0 °F 50% 30.02 in 10.0 mi East 6.9 mph - N/A   Overcast
2:12 AM 21.2 °F 13.6 °F 5.0 °F 50% 30.02 in 10.0 mi East 5.8 mph - N/A   Overcast
2:32 AM 21.2 °F 13.6 °F 5.0 °F 50% 30.02 in 10.0 mi East 5.8 mph - N/A   Overcast
2:52 AM 21.2 °F 13.6 °F 5.0 °F 50% 30.01 in 10.0 mi East 5.8 mph - N/A   Overcast
3:12 AM 21.2 °F 13.6 °F 5.0 °F 50% 30.00 in 10.0 mi East 5.8 mph - N/A   Overcast
3:32 AM 21.2 °F 13.6 °F 5.0 °F 50% 30.00 in 10.0 mi ESE 5.8 mph - N/A   Overcast
3:52 AM 21.2 °F 12.6 °F 5.0 °F 50% 30.00 in 10.0 mi ESE 6.9 mph - N/A   Overcast
4:12 AM 21.2 °F 12.6 °F 5.0 °F 50% 30.00 in 10.0 mi East 6.9 mph - N/A   Overcast
4:32 AM 21.2 °F 12.6 °F 5.0 °F 50% 30.00 in 10.0 mi East 6.9 mph - N/A   Overcast
4:52 AM 21.2 °F 13.6 °F 6.8 °F 54% 29.99 in 10.0 mi East 5.8 mph - N/A   Overcast
5:12 AM 21.2 °F 11.7 °F 5.0 °F 50% 29.99 in 10.0 mi East 8.1 mph - N/A   Overcast
5:32 AM 21.2 °F 12.6 °F 5.0 °F 50% 29.99 in 10.0 mi East 6.9 mph - N/A   Overcast
5:52 AM 21.2 °F 12.6 °F 5.0 °F 50% 29.99 in 10.0 mi East 6.9 mph - N/A   Overcast
6:12 AM 21.2 °F 12.6 °F 5.0 °F 50% 29.99 in 10.0 mi East 6.9 mph - N/A   Overcast
6:32 AM 21.2 °F 13.6 °F 5.0 °F 50% 29.99 in 10.0 mi East 5.8 mph - N/A   Overcast
6:52 AM 21.2 °F 12.6 °F 6.8 °F 54% 29.99 in 10.0 mi East 6.9 mph - N/A   Overcast
7:12 AM 21.2 °F 12.6 °F 6.8 °F 54% 30.00 in 10.0 mi East 6.9 mph - N/A   Overcast
7:32 AM 21.2 °F 11.7 °F 6.8 °F 54% 30.01 in 10.0 mi ESE 8.1 mph - N/A   Overcast
7:52 AM 21.2 °F 13.6 °F 8.6 °F 58% 30.01 in 10.0 mi East 5.8 mph - N/A   Overcast
8:12 AM 21.2 °F 14.9 °F 8.6 °F 58% 30.02 in 10.0 mi East 4.6 mph - N/A   Overcast
8:32 AM 23.0 °F 14.7 °F 8.6 °F 54% 30.02 in 5.0 mi East 6.9 mph - N/A Snow Light Snow
8:52 AM 23.0 °F 13.1 °F 10.4 °F 59% 30.01 in 5.0 mi East 9.2 mph - N/A Snow Light Snow
9:12 AM 24.8 °F 15.3 °F 12.2 °F 59% 30.01 in 5.0 mi East 9.2 mph - N/A Snow Light Snow
9:32 AM 26.6 °F 16.8 °F 12.2 °F 55% 30.01 in 5.0 mi ESE 10.4 mph - N/A Snow Light Snow
9:52 AM 24.8 °F 15.3 °F 10.4 °F 54% 30.01 in 5.0 mi ESE 9.2 mph - N/A Snow Light Snow
10:12 AM 26.6 °F 17.5 °F 14.0 °F 59% 30.02 in 4.0 mi ESE 9.2 mph - N/A Snow Light Snow
10:32 AM 26.6 °F 17.5 °F 15.8 °F 64% 30.02 in 4.0 mi ESE 9.2 mph - N/A Snow Light Snow
10:52 AM 26.6 °F 14.7 °F 14.0 °F 59% 30.01 in 10.0 mi ESE 15.0 mph 18.4 mph N/A   Overcast
11:12 AM 26.6 °F 15.7 °F 14.0 °F 59% 30.01 in 10.0 mi ESE 12.7 mph - N/A   Overcast
11:52 AM 28.4 °F 18.0 °F 17.6 °F 64% 29.99 in 7.0 mi ESE 12.7 mph 18.4 mph N/A   Overcast
12:12 PM 28.4 °F 16.6 °F 14.0 °F 55% 29.99 in 10.0 mi ESE 16.1 mph 21.9 mph N/A   Overcast
12:52 PM 28.4 °F 19.7 °F 12.2 °F 51% 29.99 in 10.0 mi ESE 9.2 mph 16.1 mph N/A   Overcast
1:12 PM 26.6 °F 16.8 °F 15.8 °F 64% 29.99 in 4.0 mi ESE 10.4 mph - N/A Snow Light Snow
1:32 PM 26.6 °F 18.2 °F 17.6 °F 69% 29.99 in 5.0 mi ESE 8.1 mph - N/A Snow Light Snow
1:52 PM 26.6 °F 17.5 °F 17.6 °F 69% 29.98 in 7.0 mi ESE 9.2 mph - N/A   Overcast
2:12 PM 26.6 °F 17.5 °F 15.8 °F 64% 29.98 in 10.0 mi ESE 9.2 mph - N/A Snow Light Snow
2:32 PM 26.6 °F 16.2 °F 17.6 °F 69% 29.98 in 5.0 mi ESE 11.5 mph - N/A Snow Light Snow
2:52 PM 26.6 °F 15.2 °F 19.4 °F 74% 29.98 in 3.0 mi ESE 13.8 mph - N/A Snow Light Snow
3:12 PM 26.6 °F 17.5 °F 19.4 °F 74% 29.99 in 5.0 mi East 9.2 mph - N/A Snow Light Snow
3:32 PM 26.6 °F 18.2 °F 19.4 °F 74% 29.99 in 10.0 mi East 8.1 mph - N/A   Overcast
3:52 PM 26.6 °F 16.8 °F 19.4 °F 74% 29.99 in 10.0 mi ESE 10.4 mph - N/A   Overcast
4:12 PM 26.6 °F 16.2 °F 19.4 °F 74% 29.99 in 10.0 mi ESE 11.5 mph - N/A   Overcast
4:32 PM 26.6 °F 18.2 °F 19.4 °F 74% 30.00 in 10.0 mi ESE 8.1 mph - N/A   Overcast
4:52 PM 26.6 °F 17.5 °F 19.4 °F 74% 29.99 in 10.0 mi ESE 9.2 mph 16.1 mph N/A   Overcast
5:12 PM 26.6 °F 18.2 °F 19.4 °F 74% 30.00 in 7.0 mi ESE 8.1 mph - N/A Snow Light Snow
5:32 PM 26.6 °F 19.1 °F 21.2 °F 80% 30.00 in 10.0 mi ESE 6.9 mph - N/A   Overcast
5:52 PM 26.6 °F 21.2 °F 21.2 °F 80% 30.01 in 10.0 mi SE 4.6 mph - N/A   Overcast
6:12 PM 26.6 °F 19.1 °F 21.2 °F 80% 30.01 in 10.0 mi ESE 6.9 mph - N/A   Overcast
6:32 PM 26.6 °F 20.0 °F 21.2 °F 80% 30.01 in 10.0 mi ESE 5.8 mph - N/A Snow Light Snow
6:52 PM 26.6 °F 21.2 °F 21.2 °F 80% 30.02 in 7.0 mi SE 4.6 mph - N/A   Overcast
7:12 PM 26.6 °F 21.2 °F 21.2 °F 80% 30.01 in 7.0 mi ESE 4.6 mph - N/A Snow Light Snow
7:32 PM 24.8 °F 19.1 °F 21.2 °F 86% 30.02 in 7.0 mi SE 4.6 mph - N/A Snow Light Snow
7:52 PM 24.8 °F 20.5 °F 21.2 °F 86% 30.03 in 10.0 mi SE 3.5 mph - 0.01 in Snow Light Snow
8:32 PM 24.8 °F - 21.2 °F 86% 30.04 in 5.0 mi Calm Calm - N/A Snow Light Snow
8:52 PM 24.8 °F - 21.2 °F 86% 30.05 in 1.8 mi Calm Calm - N/A Snow Light Snow
9:12 PM 24.8 °F - 21.2 °F 86% 30.06 in 1.8 mi Calm Calm - N/A Snow Light Snow
9:32 PM 24.8 °F - 21.2 °F 86% 30.05 in 1.5 mi Calm Calm - 0.02 in Snow Light Snow
9:52 PM 24.8 °F 20.5 °F 21.2 °F 86% 30.05 in 1.0 mi East 3.5 mph - 0.02 in Snow Snow
10:12 PM 24.8 °F 19.1 °F 21.2 °F 86% 30.04 in 2.5 mi East 4.6 mph - N/A Snow Light Snow
10:32 PM 24.8 °F 19.1 °F 21.2 °F 86% 30.04 in 2.0 mi East 4.6 mph - N/A Snow Light Snow
10:52 PM 24.8 °F 16.9 °F 21.2 °F 86% 30.04 in 3.0 mi East 6.9 mph - 0.01 in Snow Light Snow
11:12 PM 24.8 °F 16.9 °F 21.2 °F 86% 30.04 in 2.0 mi ESE 6.9 mph - N/A Snow Light Snow
11:32 PM 24.8 °F 17.9 °F 21.2 °F 86% 30.04 in 3.0 mi East 5.8 mph - N/A Snow Light Snow
11:52 PM 24.8 °F 19.1 °F 21.2 °F 86% 30.03 in 1.8 mi East 4.6 mph - N/A Snow Light Snow